Location: B?ezina
(49.8085°N, 13.6013°E)
Time: 17:41:33
(UTC+00:00)

Cosmos-2242 - Pass Details

Date: 19 May 2025
Orbit: 569 x 594 km, 82.5° (Epoch: 16 June)

Event Time Altitude Azimuth Distance (km) Brightness Sun altitude
Exits shadow 19:51:11 - 173° (S) 2,363 5.6 -8.5°
Reaches altitude 10° 19:52:16 10° 171° (S) 1,927 5.1 -8.6°
Maximum altitude 19:56:24 52° 95° (E) 742 3.2 -9.1°
Drops below altitude 10° 20:00:34 10° 19° (NNE) 1,938 6.0 -9.5°
Sets 20:02:49 0° 14° (NNE) 2,842 7.0 -9.8°
